IRA951T HECA-HLTQ

Flight info

Callsign IRA951T
Flight time 1h 11m
Altitude 34000
Route REXUM L321 OBRAN T10 DASUM P751 MMA M855 LOSUL
Aircraft B738/M-SDE2E3FGHIRWXY/LB1

Departure

Time 2026-04-21 22:19
Airport Cairo International Airport (HECA)

Arrival

Time 2026-04-21 23:31
Airport Tobruk International Airport (HLTQ)
Time Latitude Longitude Altitude Speed Heading
2026-04-21 22:04 30.10709 31.40096 373 ft 0 kts 138°
2026-04-21 22:12 30.10719 31.40086 373 ft 4 kts 147°
2026-04-21 22:12 30.10742 31.40076 373 ft 4 kts 188°
2026-04-21 22:12 30.10762 31.40086 373 ft 1 kts 227°
2026-04-21 22:13 30.10762 31.40087 373 ft 1 kts 227°
2026-04-21 22:15 30.10760 31.40084 373 ft 2 kts 227°
2026-04-21 22:15 30.10736 31.40053 373 ft 8 kts 227°
2026-04-21 22:15 30.10696 31.40004 373 ft 9 kts 227°
2026-04-21 22:16 30.10656 31.39952 373 ft 8 kts 227°
2026-04-21 22:16 30.10617 31.39903 373 ft 8 kts 227°
2026-04-21 22:16 30.10571 31.39863 373 ft 9 kts 194°
2026-04-21 22:16 30.10507 31.39870 373 ft 10 kts 172°
2026-04-21 22:17 30.10434 31.39878 373 ft 11 kts 181°
2026-04-21 22:17 30.10365 31.39845 373 ft 11 kts 175°
2026-04-21 22:17 30.10290 31.39869 373 ft 12 kts 159°
2026-04-21 22:17 30.10220 31.39924 373 ft 13 kts 139°
2026-04-21 22:18 30.10150 31.39999 371 ft 15 kts 128°
2026-04-21 22:18 30.10181 31.40102 372 ft 15 kts 45°
2026-04-21 22:18 30.10256 31.40190 373 ft 22 kts 48°
2026-04-21 22:18 30.10478 31.40475 377 ft 79 kts 48°
2026-04-21 22:19 30.10995 31.41164 373 ft 145 kts 50°
2026-04-21 22:19 30.11770 31.42199 455 ft 191 kts 48°
2026-04-21 22:19 30.12704 31.43339 1097 ft 197 kts 44°
2026-04-21 22:19 30.13760 31.44405 1663 ft 211 kts 31°
2026-04-21 22:20 30.15219 31.44866 1956 ft 233 kts 358°
2026-04-21 22:20 30.16809 31.44295 2370 ft 249 kts 326°
2026-04-21 22:20 30.17981 31.42801 3143 ft 255 kts 300°
2026-04-21 22:20 30.18825 31.41008 4100 ft 255 kts 297°
2026-04-21 22:21 30.19644 31.39166 4976 ft 259 kts 297°
2026-04-21 22:21 30.20464 31.37301 5836 ft 262 kts 297°
2026-04-21 22:21 30.21293 31.35409 6684 ft 266 kts 297°
2026-04-21 22:21 30.22132 31.33489 7509 ft 269 kts 297°
2026-04-21 22:22 30.22981 31.31545 8341 ft 272 kts 297°
2026-04-21 22:22 30.23831 31.29573 9140 ft 276 kts 293°
2026-04-21 22:22 30.24275 31.27412 9745 ft 279 kts 275°
2026-04-21 22:22 30.24450 31.25198 10025 ft 280 kts 276°
2026-04-21 22:23 30.24650 31.22923 10668 ft 284 kts 276°
2026-04-21 22:23 30.24851 31.20671 11439 ft 286 kts 276°
2026-04-21 22:23 30.25054 31.18372 12218 ft 288 kts 276°
2026-04-21 22:23 30.25259 31.16052 12953 ft 292 kts 276°
2026-04-21 22:24 30.25464 31.13700 13678 ft 295 kts 276°
2026-04-21 22:24 30.25671 31.11328 14391 ft 298 kts 276°
2026-04-21 22:24 30.25879 31.08927 15090 ft 302 kts 276°
2026-04-21 22:24 30.26089 31.06495 15784 ft 305 kts 276°
2026-04-21 22:25 30.26300 31.04046 16466 ft 308 kts 276°
2026-04-21 22:25 30.26513 31.01565 17126 ft 311 kts 276°
2026-04-21 22:25 30.26728 30.99063 17779 ft 314 kts 276°
2026-04-21 22:25 30.26944 30.96532 18415 ft 318 kts 276°
2026-04-21 22:26 30.27162 30.93977 19042 ft 321 kts 275°
2026-04-21 22:26 30.27381 30.91398 19652 ft 324 kts 275°
2026-04-21 22:26 30.27602 30.88796 20257 ft 327 kts 275°
2026-04-21 22:26 30.27824 30.86169 20844 ft 330 kts 275°
2026-04-21 22:27 30.28048 30.83513 21415 ft 333 kts 275°
2026-04-21 22:27 30.28276 30.80813 21720 ft 346 kts 275°
2026-04-21 22:27 30.28514 30.77978 21841 ft 362 kts 275°
2026-04-21 22:27 30.28763 30.75009 21957 ft 378 kts 275°
2026-04-21 22:28 30.29020 30.71926 22070 ft 393 kts 275°
2026-04-21 22:28 30.29288 30.68715 22173 ft 407 kts 275°
2026-04-21 22:28 30.29563 30.65396 22266 ft 421 kts 275°
2026-04-21 22:28 30.29845 30.61987 22459 ft 430 kts 275°
2026-04-21 22:29 30.30131 30.58530 22845 ft 433 kts 275°
2026-04-21 22:29 30.30417 30.55052 23313 ft 434 kts 275°
2026-04-21 22:29 30.30702 30.51571 23744 ft 436 kts 275°
2026-04-21 22:29 30.30988 30.48065 24135 ft 439 kts 275°
2026-04-21 22:30 30.31276 30.44540 24507 ft 441 kts 275°
2026-04-21 22:30 30.31563 30.40997 24871 ft 444 kts 275°
2026-04-21 22:30 30.31851 30.37436 25230 ft 446 kts 275°
2026-04-21 22:30 30.32140 30.33850 25576 ft 448 kts 275°
2026-04-21 22:31 30.32429 30.30251 25913 ft 450 kts 275°
2026-04-21 22:31 30.32719 30.26628 26229 ft 453 kts 275°
2026-04-21 22:31 30.33009 30.22999 26577 ft 454 kts 275°
2026-04-21 22:31 30.33298 30.19364 27012 ft 453 kts 275°
2026-04-21 22:32 30.33584 30.15743 27483 ft 451 kts 275°
2026-04-21 22:32 30.33869 30.12133 27918 ft 450 kts 275°
2026-04-21 22:32 30.34153 30.08530 28300 ft 450 kts 275°
2026-04-21 22:32 30.34435 30.04926 28702 ft 449 kts 275°
2026-04-21 22:33 30.34716 30.01328 29110 ft 448 kts 275°
2026-04-21 22:33 30.34995 29.97742 29519 ft 447 kts 275°
2026-04-21 22:33 30.35273 29.94157 29897 ft 446 kts 275°
2026-04-21 22:33 30.35549 29.90581 30269 ft 446 kts 275°
2026-04-21 22:34 30.35824 29.87009 30638 ft 445 kts 275°
2026-04-21 22:34 30.36097 29.83449 31002 ft 444 kts 275°
2026-04-21 22:34 30.36370 29.79887 31349 ft 444 kts 275°
2026-04-21 22:34 30.36640 29.76330 31686 ft 443 kts 275°
2026-04-21 22:35 30.36910 29.72783 32030 ft 442 kts 275°
2026-04-21 22:35 30.37178 29.69237 32374 ft 441 kts 275°
2026-04-21 22:35 30.37444 29.65703 32694 ft 440 kts 275°
2026-04-21 22:35 30.37709 29.62173 33016 ft 440 kts 275°
2026-04-21 22:36 30.38235 29.55121 33626 ft 439 kts 275°
2026-04-21 22:36 30.38496 29.51607 33926 ft 438 kts 275°
2026-04-21 22:36 30.38757 29.48082 33989 ft 442 kts 275°
2026-04-21 22:37 30.39279 29.40982 33995 ft 442 kts 275°
2026-04-21 22:37 30.39792 29.33955 33995 ft 435 kts 275°
2026-04-21 22:38 30.40300 29.26963 34007 ft 436 kts 275°
2026-04-21 22:38 30.41548 29.20183 34005 ft 436 kts 295°
2026-04-21 22:39 30.43078 29.17154 34000 ft 436 kts 307°
2026-04-21 22:39 30.45138 29.14521 34014 ft 436 kts 315°
2026-04-21 22:39 30.49382 29.09538 34002 ft 437 kts 314°
2026-04-21 22:40 30.53283 29.04124 34007 ft 438 kts 308°
2026-04-21 22:40 30.57024 28.98532 34001 ft 439 kts 308°
2026-04-21 22:41 30.60782 28.92936 34000 ft 440 kts 308°
2026-04-21 22:41 30.64558 28.87356 33999 ft 440 kts 308°
2026-04-21 22:42 30.68344 28.81772 33999 ft 440 kts 308°
2026-04-21 22:42 30.72127 28.76187 34000 ft 439 kts 308°
2026-04-21 22:43 30.75900 28.70606 34001 ft 439 kts 308°
2026-04-21 22:43 30.79669 28.65023 34000 ft 438 kts 308°
2026-04-21 22:44 30.83430 28.59443 34001 ft 438 kts 308°
2026-04-21 22:44 30.87181 28.53870 34000 ft 437 kts 308°
2026-04-21 22:45 30.90816 28.48201 33990 ft 437 kts 299°
2026-04-21 22:45 30.92886 28.41591 33998 ft 436 kts 279°
2026-04-21 22:46 30.93512 28.34576 34001 ft 436 kts 275°
2026-04-21 22:46 30.94067 28.27553 34001 ft 436 kts 275°
2026-04-21 22:47 30.94667 28.20515 34002 ft 436 kts 276°
2026-04-21 22:47 30.95286 28.13478 34002 ft 437 kts 276°
2026-04-21 22:48 30.95902 28.06431 34002 ft 437 kts 276°
2026-04-21 22:48 30.96694 27.99411 33991 ft 438 kts 284°
2026-04-21 22:49 30.98895 27.92812 34005 ft 437 kts 294°
2026-04-21 22:49 31.01403 27.86345 33998 ft 438 kts 294°
2026-04-21 22:50 31.03857 27.79896 34002 ft 438 kts 294°
2026-04-21 22:50 31.06296 27.73384 34002 ft 439 kts 293°
2026-04-21 22:51 31.08729 27.66855 34000 ft 439 kts 293°
2026-04-21 22:51 31.11162 27.60324 34001 ft 439 kts 293°
2026-04-21 22:52 31.13650 27.53823 33996 ft 439 kts 298°
2026-04-21 22:52 31.17003 27.47872 34001 ft 439 kts 305°
2026-04-21 22:53 31.20499 27.42035 34002 ft 438 kts 304°
2026-04-21 22:53 31.23940 27.36155 34000 ft 438 kts 304°
2026-04-21 22:54 31.27348 27.30259 34000 ft 438 kts 304°
2026-04-21 22:54 31.30743 27.24350 33998 ft 438 kts 301°
2026-04-21 22:55 31.32806 27.18972 33998 ft 437 kts 285°
2026-04-21 22:55 31.34272 27.12077 33998 ft 437 kts 283°
2026-04-21 22:56 31.35693 27.05167 34000 ft 437 kts 283°
2026-04-21 22:56 31.37142 26.98269 34002 ft 437 kts 284°
2026-04-21 22:57 31.38611 26.91367 34002 ft 437 kts 284°
2026-04-21 22:57 31.40082 26.84459 34002 ft 437 kts 284°
2026-04-21 22:58 31.41548 26.77556 34002 ft 437 kts 284°
2026-04-21 22:58 31.43013 26.70635 34002 ft 438 kts 284°
2026-04-21 22:59 31.44473 26.63718 34002 ft 438 kts 284°
2026-04-21 22:59 31.45931 26.56791 33999 ft 438 kts 284°
2026-04-21 23:00 31.47385 26.49863 34002 ft 438 kts 284°
2026-04-21 23:00 31.48835 26.42930 34002 ft 438 kts 284°
2026-04-21 23:01 31.50280 26.36002 34000 ft 438 kts 283°
2026-04-21 23:01 31.51723 26.29067 34002 ft 438 kts 283°
2026-04-21 23:02 31.53161 26.22133 34002 ft 438 kts 283°
2026-04-21 23:02 31.54586 26.15244 34000 ft 438 kts 283°
2026-04-21 23:03 31.56015 26.08312 34002 ft 437 kts 283°
2026-04-21 23:03 31.57441 26.01377 34002 ft 437 kts 283°
2026-04-21 23:04 31.58492 25.94388 33984 ft 427 kts 278°
2026-04-21 23:04 31.58895 25.90993 33683 ft 419 kts 278°
2026-04-21 23:04 31.59288 25.87607 33173 ft 419 kts 278°
2026-04-21 23:05 31.59681 25.84253 32642 ft 411 kts 278°
2026-04-21 23:05 31.60076 25.80948 32009 ft 407 kts 278°
2026-04-21 23:05 31.60473 25.77684 31392 ft 403 kts 278°
2026-04-21 23:05 31.60871 25.74445 30804 ft 398 kts 278°
2026-04-21 23:06 31.61265 25.71256 30243 ft 392 kts 278°
2026-04-21 23:06 31.61653 25.68109 29705 ft 387 kts 278°
2026-04-21 23:06 31.62037 25.65004 29149 ft 382 kts 278°
2026-04-21 23:06 31.62413 25.61948 28600 ft 377 kts 278°
2026-04-21 23:07 31.62786 25.58917 28049 ft 373 kts 278°
2026-04-21 23:07 31.63153 25.55923 27501 ft 369 kts 278°
2026-04-21 23:07 31.63516 25.52956 26995 ft 368 kts 278°
2026-04-21 23:07 31.63883 25.49953 26527 ft 376 kts 278°
2026-04-21 23:08 31.64256 25.46891 26033 ft 380 kts 278°
2026-04-21 23:08 31.64630 25.43816 25534 ft 381 kts 278°
2026-04-21 23:08 31.65003 25.40743 25041 ft 381 kts 278°
2026-04-21 23:08 31.65376 25.37665 24541 ft 381 kts 278°
2026-04-21 23:09 31.65748 25.34591 24045 ft 380 kts 278°
2026-04-21 23:09 31.66118 25.31517 23547 ft 380 kts 278°
2026-04-21 23:09 31.66487 25.28453 23051 ft 379 kts 278°
2026-04-21 23:09 31.66855 25.25391 22550 ft 378 kts 278°
2026-04-21 23:10 31.67220 25.22345 22052 ft 377 kts 278°
2026-04-21 23:10 31.67585 25.19300 21554 ft 376 kts 278°
2026-04-21 23:10 31.67948 25.16257 21055 ft 375 kts 278°
2026-04-21 23:10 31.68340 25.13236 20557 ft 374 kts 282°
2026-04-21 23:11 31.69083 25.10322 20056 ft 373 kts 290°
2026-04-21 23:11 31.69982 25.07471 19560 ft 371 kts 291°
2026-04-21 23:11 31.70900 25.04642 19058 ft 370 kts 291°
2026-04-21 23:11 31.71815 25.01819 18564 ft 369 kts 290°
2026-04-21 23:12 31.72717 24.99005 18064 ft 368 kts 290°
2026-04-21 23:12 31.73607 24.96196 17564 ft 366 kts 290°
2026-04-21 23:12 31.74486 24.93398 17066 ft 365 kts 290°
2026-04-21 23:12 31.75360 24.90598 16564 ft 364 kts 290°
2026-04-21 23:13 31.76225 24.87815 16067 ft 362 kts 290°
2026-04-21 23:13 31.77084 24.85045 15570 ft 361 kts 290°
2026-04-21 23:13 31.77940 24.82280 15071 ft 359 kts 290°
2026-04-21 23:13 31.78791 24.79527 14575 ft 358 kts 290°
2026-04-21 23:14 31.79626 24.76822 14074 ft 356 kts 290°
2026-04-21 23:14 31.80480 24.74053 13573 ft 354 kts 290°
2026-04-21 23:14 31.81305 24.71376 13070 ft 349 kts 290°
2026-04-21 23:14 31.82119 24.68732 12564 ft 339 kts 290°
2026-04-21 23:15 31.82911 24.66158 12057 ft 330 kts 290°
2026-04-21 23:15 31.83681 24.63654 11560 ft 322 kts 290°
2026-04-21 23:15 31.84432 24.61208 11147 ft 313 kts 290°
2026-04-21 23:15 31.85159 24.58840 10765 ft 303 kts 290°
2026-04-21 23:16 31.85865 24.56538 10384 ft 295 kts 290°
2026-04-21 23:16 31.86555 24.54289 10010 ft 288 kts 290°
2026-04-21 23:16 31.87225 24.52099 9638 ft 282 kts 290°
2026-04-21 23:16 31.87876 24.49972 9385 ft 272 kts 290°
2026-04-21 23:17 31.88577 24.47943 9114 ft 265 kts 300°
2026-04-21 23:17 31.89588 24.46152 8872 ft 262 kts 304°
2026-04-21 23:17 31.90619 24.44392 8627 ft 261 kts 304°
2026-04-21 23:17 31.91646 24.42637 8380 ft 260 kts 304°
2026-04-21 23:18 31.92671 24.40884 8133 ft 260 kts 304°
2026-04-21 23:18 31.93692 24.39137 7885 ft 259 kts 304°
2026-04-21 23:18 31.94715 24.37387 7639 ft 259 kts 304°
2026-04-21 23:18 31.95732 24.35646 7388 ft 258 kts 304°
2026-04-21 23:19 31.96751 24.33902 7139 ft 258 kts 304°
2026-04-21 23:19 31.97767 24.32164 6891 ft 258 kts 304°
2026-04-21 23:19 31.98781 24.30427 6646 ft 257 kts 304°
2026-04-21 23:19 31.99797 24.28688 6394 ft 257 kts 304°
2026-04-21 23:20 32.00811 24.26952 6145 ft 257 kts 304°
2026-04-21 23:20 32.01823 24.25219 5897 ft 257 kts 304°
2026-04-21 23:20 32.02837 24.23481 5648 ft 257 kts 304°
2026-04-21 23:20 32.03851 24.21745 5394 ft 257 kts 304°
2026-04-21 23:21 32.04864 24.20009 5149 ft 256 kts 304°
2026-04-21 23:21 32.05866 24.18292 4891 ft 253 kts 304°
2026-04-21 23:21 32.06853 24.16600 4628 ft 249 kts 304°
2026-04-21 23:21 32.07827 24.14931 4368 ft 244 kts 304°
2026-04-21 23:22 32.08775 24.13306 4117 ft 237 kts 304°
2026-04-21 23:22 32.09702 24.11717 3868 ft 235 kts 304°
2026-04-21 23:22 32.10628 24.10129 3617 ft 235 kts 304°
2026-04-21 23:22 32.11557 24.08537 3376 ft 236 kts 304°
2026-04-21 23:23 32.12472 24.06967 3158 ft 235 kts 304°
2026-04-21 23:23 32.13404 24.05369 2969 ft 233 kts 304°
2026-04-21 23:23 32.14154 24.03688 2760 ft 233 kts 283°
2026-04-21 23:23 32.14426 24.01809 2599 ft 232 kts 279°
2026-04-21 23:24 32.14687 23.99922 2410 ft 233 kts 279°
2026-04-21 23:24 32.14802 23.98053 2203 ft 232 kts 261°
2026-04-21 23:24 32.14127 23.96336 2010 ft 230 kts 226°
2026-04-21 23:24 32.12815 23.95385 1888 ft 217 kts 192°
2026-04-21 23:25 32.11381 23.95328 1869 ft 198 kts 178°
2026-04-21 23:25 32.10071 23.95338 1835 ft 183 kts 181°
2026-04-21 23:25 32.08806 23.95273 1774 ft 180 kts 184°
2026-04-21 23:25 32.07570 23.95159 1743 ft 177 kts 184°
2026-04-21 23:26 32.06339 23.95035 1726 ft 179 kts 186°
2026-04-21 23:26 32.05095 23.94867 1701 ft 178 kts 187°
2026-04-21 23:26 32.03895 23.94679 1633 ft 172 kts 188°
2026-04-21 23:26 32.02726 23.94480 1570 ft 169 kts 188°
2026-04-21 23:27 32.01566 23.94240 1527 ft 169 kts 190°
2026-04-21 23:27 32.00456 23.94001 1497 ft 155 kts 190°
2026-04-21 23:27 31.99425 23.93778 1500 ft 149 kts 190°
2026-04-21 23:27 31.98419 23.93525 1435 ft 147 kts 195°
2026-04-21 23:28 31.97490 23.93163 1386 ft 148 kts 200°
2026-04-21 23:28 31.96489 23.92727 1335 ft 148 kts 200°
2026-04-21 23:28 31.95517 23.92408 1400 ft 141 kts 192°
2026-04-21 23:28 31.94591 23.92100 1383 ft 136 kts 197°
2026-04-21 23:29 31.93662 23.91925 1302 ft 136 kts 186°
2026-04-21 23:29 31.92734 23.91790 1215 ft 134 kts 178°
2026-04-21 23:29 31.91831 23.91592 1252 ft 134 kts 204°
2026-04-21 23:29 31.90926 23.91322 1164 ft 139 kts 177°
2026-04-21 23:30 31.89963 23.91363 959 ft 137 kts 184°
2026-04-21 23:30 31.89041 23.91178 820 ft 133 kts 197°
2026-04-21 23:30 31.88168 23.90805 681 ft 135 kts 201°
2026-04-21 23:30 31.87300 23.90405 555 ft 132 kts 200°
2026-04-21 23:31 31.86469 23.90039 526 ft 114 kts 200°
2026-04-21 23:31 31.86027 23.89849 518 ft 48 kts 200°
2026-04-21 23:31 31.85730 23.89720 517 ft 43 kts 200°
2026-04-21 23:31 31.85472 23.89706 512 ft 38 kts 119°
2026-04-21 23:32 31.85472 23.90002 509 ft 35 kts 87°
2026-04-21 23:32 31.85479 23.90280 504 ft 33 kts 88°
2026-04-21 23:32 31.85484 23.90543 502 ft 31 kts 89°
2026-04-21 23:32 31.85489 23.90791 498 ft 30 kts 89°
2026-04-21 23:33 31.85494 23.91026 492 ft 28 kts 89°
2026-04-21 23:33 31.85498 23.91247 489 ft 26 kts 89°
2026-04-21 23:33 31.85503 23.91453 494 ft 24 kts 89°
2026-04-21 23:33 31.85507 23.91647 488 ft 23 kts 89°
2026-04-21 23:34 31.85510 23.91831 487 ft 22 kts 89°
2026-04-21 23:34 31.85514 23.92014 484 ft 25 kts 89°
2026-04-21 23:34 31.85550 23.92219 478 ft 27 kts 34°
2026-04-21 23:34 31.85725 23.92220 481 ft 25 kts 351°
2026-04-21 23:35 31.85867 23.92128 482 ft 23 kts 343°
2026-04-21 23:35 31.85938 23.92118 477 ft 8 kts 349°
2026-04-21 23:35 31.85947 23.92116 480 ft 0 kts 349°